[[{"header":{"parameterUnit":"m.s-1","parameterCategory":2,"la1":30.2991,"la2":30.254,"lo1":-89.0895,"lo2":-89.0444,"dy":0.0017,"dx":0.0017,"nx":28,"ny":28,"refTime":"2023-09-29T09:00:00:Z","depth":"0","parameterNumber":2,"parameterNumberName":"U-component_of_CURRENTS"},"data":[0,0,0,0,0,0,0,0,0,0,0,0,0,0,0,0,0,0,0,0,0,0,0,0,0,0,0,0,0,0,0,0,0,0,0,0,0,0,0,0,0,0,0,0,0,0,0,0,0,0,0,0,0,0,0,0,0,0,-0.1824,-0.1824,0,-0.1814,-0.1814,-0.1814,-0.1814,-0.1814,-0.1814,-0.1815,-0.1693,-0.169,-0.1686,0,0,0,0,0,0,0,0,0,0,0,0,0,-0.1753,-0.1755,-0.1824,-0.1824,-0.1824,-0.1814,-0.1814,-0.1814,-0.1814,-0.1814,-0.1814,-0.1815,-0.1694,-0.169,-0.1686,0,0,0,0,0,0,0,0,0,0,0,0,0,-0.1767,-0.1755,-0.1824,-0.1824,-0.1824,-0.1814,-0.1814,-0.1814,-0.1814,-0.1814,-0.1814,-0.1815,-0.1696,-0.1691,-0.1685,-0.1646,0,0,-0.1669,-0.1667,0,0,0,0,0,0,0,0,-0.1766,-0.1769,-0.1824,-0.1824,-0.1824,-0.1817,-0.1744,-0.1752,-0.1814,-0.1816,-0.1815,-0.1815,-0.1725,-0.1717,-0.1714,-0.164,-0.1635,-0.1669,-0.1666,-0.1664,-0.1662,0,0,0,0,0,0,0,-0.1765,-0.1769,-0.1819,-0.1824,-0.1824,-0.1793,-0.1797,-0.1746,-0.1765,-0.1816,-0.1816,-0.1817,-0.1724,-0.1719,-0.1711,-0.1633,-0.1669,-0.1665,-0.1661,-0.1659,-0.1573,-0.1573,0,0,0,0,0,0,-0.1774,-0.1769,-0.1819,-0.1819,-0.1797,-0.1795,-0.1798,-0.1818,-0.1768,-0.1762,-0.1817,-0.1817,-0.1728,-0.1717,-0.1706,-0.1701,-0.1664,-0.1659,-0.1656,-0.1572,-0.1573,-0.1574,0,0,0,0,0,0,-0.1772,-0.1779,-0.182,-0.1793,-0.1796,-0.1797,-0.1818,-0.1817,-0.1821,-0.177,-0.1762,-0.1823,-0.1728,-0.1714,-0.1681,-0.1695,-0.1656,-0.1652,-0.1571,-0.1572,-0.1573,-0.1661,0,0,0,0,0,0,-0.1771,-0.1779,-0.1793,-0.1795,-0.1798,-0.1831,-0.1817,-0.1817,-0.1822,-0.1822,-0.1772,-0.1761,-0.1727,-0.1689,-0.1676,-0.1687,-0.1648,-0.157,-0.1571,-0.1573,-0.1657,-0.1665,-0.1672,0,0,0,0,0,-0.1769,-0.1801,-0.1794,-0.18,-0.1819,-0.1832,-0.1832,-0.1831,-0.1822,-0.1833,-0.18,-0.1763,-0.169,-0.1685,-0.1669,-0.1679,-0.1569,-0.1571,-0.1573,-0.1654,-0.1664,-0.1672,0,0,0,0,0,0,-0.1786,-0.1804,-0.1797,-0.1835,-0.1836,-0.1833,-0.1844,-0.1835,-0.1819,-0.1814,-0.1765,-0.1752,-0.1732,-0.1691,-0.1688,-0.1661,-0.1626,-0.1625,-0.1693,-0.1702,-0.1709,-0.1713,-0.1643,0,0,0,0,0,-0.1793,-0.1817,-0.1823,-0.185,-0.1854,-0.1845,-0.1847,-0.1845,-0.1831,-0.1826,-0.1792,-0.1754,-0.1725,-0.1703,-0.167,-0.1643,-0.1643,-0.1642,-0.165,-0.1656,-0.165,-0.1666,-0.1675,-0.158,-0.158,-0.158,0,0,-0.1805,-0.1818,-0.183,-0.1853,-0.1852,-0.1859,-0.1848,-0.186,-0.1862,-0.181,-0.1801,-0.1775,-0.1725,-0.1711,-0.1697,-0.1677,-0.1694,-0.1659,-0.1665,-0.1654,-0.1669,-0.1678,-0.1687,-0.1581,-0.1581,-0.158,0,0,-0.1828,-0.1854,-0.1868,-0.1876,-0.188,-0.1877,-0.1883,-0.1882,-0.1882,-0.1868,-0.184,-0.1826,-0.1771,-0.1753,-0.1731,-0.1754,-0.1735,-0.1743,-0.1776,-0.1793,-0.1801,-0.1808,-0.1868,-0.188,-0.1743,-0.1743,-0.1743,0,-0.1834,-0.1861,-0.1874,-0.1886,-0.1893,-0.1888,-0.1897,-0.1898,-0.1884,-0.1886,-0.1876,-0.1836,-0.1793,-0.1784,-0.1794,-0.177,-0.179,-0.1748,-0.1804,-0.1811,-0.1816,-0.1876,-0.1887,-0.1748,-0.1747,-0.1747,-0.1746,0,-0.1858,-0.1878,-0.1893,-0.1904,-0.1914,-0.193,-0.193,-0.1937,-0.1933,-0.193,-0.1933,-0.1897,-0.1871,-0.1866,-0.1828,-0.1847,-0.1856,-0.1819,-0.1786,-0.1832,-0.1891,-0.1902,-0.1754,-0.1752,-0.1751,-0.175,0,0,-0.1873,-0.1902,-0.1905,-0.1908,-0.1928,-0.1937,-0.1952,-0.1965,-0.198,-0.1975,-0.2004,-0.1961,-0.1952,-0.1927,-0.1897,-0.1907,-0.1976,-0.1878,-0.1877,-0.1947,-0.2054,-0.1962,-0.1964,-0.195,-0.1951,-0.1952,-0.2098,0,-0.188,-0.1906,-0.192,-0.1937,-0.1948,-0.196,-0.1974,-0.1986,-0.2003,-0.2033,-0.2023,-0.2026,-0.1973,-0.1969,-0.1974,-0.1975,-0.1999,-0.1941,-0.199,-0.1992,-0.191,-0.197,-0.1854,-0.1963,-0.2108,-0.211,-0.2111,0,-0.1891,-0.1907,-0.1927,-0.1952,-0.1959,-0.1966,-0.2002,-0.2012,-0.2054,-0.2068,-0.2085,-0.2088,-0.2105,-0.2052,-0.2089,-0.2059,-0.2054,-0.2059,-0.2064,-0.1944,-0.1916,-0.1929,-0.1976,-0.195,-0.2127,-0.2125,-0.2124,0,-0.1882,-0.1912,-0.1927,-0.1937,-0.1962,-0.1972,-0.1984,-0.202,-0.205,-0.2093,-0.2138,-0.2154,-0.2177,-0.2178,-0.2161,-0.2139,-0.2217,-0.219,-0.2116,-0.2113,-0.2001,-0.1983,-0.2023,-0.2211,-0.2211,-0.221,-0.221,0,-0.1887,-0.1893,-0.1922,-0.1928,-0.1944,-0.1964,-0.1998,-0.201,-0.2075,-0.2113,-0.2145,-0.2187,-0.2203,-0.2243,-0.2219,-0.2201,-0.2261,-0.2135,-0.2134,-0.2031,-0.2015,-0.1972,-0.1975,-0.2216,-0.2215,-0.2214,-0.2213,0,-0.1855,-0.1883,-0.1895,-0.1928,-0.1936,-0.1941,-0.1999,-0.2032,-0.2085,-0.2149,-0.2168,-0.2246,-0.2266,-0.2288,-0.2309,-0.227,-0.2215,-0.223,-0.2126,-0.2105,-0.1985,-0.1997,-0.2009,-0.1965,-0.2206,-0.2205,-0.2203,0,-0.1835,-0.1838,-0.188,-0.1895,-0.1903,-0.1928,-0.1953,-0.2013,-0.2058,-0.2162,-0.2195,-0.2259,-0.2248,-0.2283,-0.2221,-0.2199,-0.216,-0.2091,-0.1993,-0.1969,-0.1985,-0.1976,-0.1938,-0.1927,-0.1924,-0.1921,-0.1919,0,-0.1773,-0.1792,-0.1805,-0.1845,-0.1872,-0.19,-0.194,-0.1982,-0.2051,-0.2096,-0.2129,-0.2135,-0.2166,-0.2077,-0.2057,-0.2018,-0.2015,-0.2028,-0.2027,-0.1781,-0.1753,-0.1711,-0.1886,-0.1893,-0.1896,-0.1898,-0.1899,-0.19,-0.1715,-0.1711,-0.1739,-0.1763,-0.1811,-0.1826,-0.1804,-0.1861,-0.1878,-0.1889,-0.1979,-0.194,-0.1931,-0.1863,-0.1852,-0.1776,-0.1818,-0.1709,-0.1743,-0.1751,-0.1631,-0.1755,-0.1721,-0.1722,-0.1723,-0.1725,-0.1726,0,-0.1624,-0.1623,-0.1651,-0.1675,-0.1692,-0.1735,-0.1758,-0.1708,-0.1657,-0.1708,-0.1678,-0.1659,-0.1589,-0.162,-0.1572,-0.1515,-0.1491,-0.1486,-0.1463,-0.145,-0.1581,-0.1484,-0.1365,-0.1365,-0.1365,-0.1365,-0.1365,-0.1365,-0.1576,-0.1543,-0.1552,-0.1525,-0.155,-0.1487,-0.1458,-0.1393,-0.1386,-0.1319,-0.1328,-0.139,-0.1413,-0.1498,-0.1437,-0.1381,-0.1367,-0.1295,-0.1357,-0.1458,-0.1482,-0.1504,-0.1413,-0.1281,-0.1281,-0.1149,-0.1148,-0.1147]},{"header":{"parameterUnit":"m.s-1","parameterCategory":2,"la1":30.2991,"la2":30.254,"lo1":-89.0895,"lo2":-89.0444,"dy":0.0017,"dx":0.0017,"nx":28,"ny":28,"refTime":"2023-09-29T09:00:00:Z","depth":"0","parameterNumber":3,"parameterNumberName":"V-component_of_CURRENTS"},"data":[0,0,0,0,0,0,0,0,0,0,0,0,0,0,0,0,0,0,0,0,0,0,0,0,0,0,0,0,0,0,0,0,0,0,0,0,0,0,0,0,0,0,0,0,0,0,0,0,0,0,0,0,0,0,0,0,0,0,-0.0422,-0.0421,0,-0.0392,-0.0392,-0.0391,-0.0361,-0.0361,-0.036,-0.036,-0.0302,-0.0301,-0.03,0,0,0,0,0,0,0,0,0,0,0,0,0,-0.0431,-0.0431,-0.0422,-0.0421,-0.0421,-0.0392,-0.0392,-0.0391,-0.0361,-0.0361,-0.036,-0.036,-0.0303,-0.0301,-0.03,0,0,0,0,0,0,0,0,0,0,0,0,0,-0.0417,-0.0431,-0.0422,-0.0402,-0.04,-0.0392,-0.0391,-0.0391,-0.0361,-0.0361,-0.036,-0.0359,-0.0303,-0.0302,-0.03,-0.0303,0,0,-0.0295,-0.0294,0,0,0,0,0,0,0,0,-0.0418,-0.0417,-0.0406,-0.0404,-0.0401,-0.0379,-0.0374,-0.036,-0.0361,-0.0376,-0.036,-0.0359,-0.0326,-0.0322,-0.0319,-0.03,-0.0298,-0.0295,-0.0294,-0.0293,-0.0292,0,0,0,0,0,0,0,-0.0419,-0.0418,-0.041,-0.0405,-0.0403,-0.0387,-0.0385,-0.0371,-0.0355,-0.0375,-0.0373,-0.0369,-0.0324,-0.0321,-0.0317,-0.0297,-0.0295,-0.0293,-0.0292,-0.0292,-0.0267,-0.0268,0,0,0,0,0,0,-0.0424,-0.0419,-0.0411,-0.0409,-0.0408,-0.0388,-0.0385,-0.0387,-0.0356,-0.035,-0.037,-0.0368,-0.0324,-0.0319,-0.0315,-0.0312,-0.0293,-0.0291,-0.029,-0.0267,-0.0267,-0.0268,0,0,0,0,0,0,-0.0424,-0.0424,-0.0412,-0.0413,-0.041,-0.0388,-0.0391,-0.0387,-0.0382,-0.0352,-0.0346,-0.0368,-0.0323,-0.0318,-0.0305,-0.0309,-0.0291,-0.0289,-0.0266,-0.0267,-0.0267,-0.0307,0,0,0,0,0,0,-0.0425,-0.0424,-0.0432,-0.0413,-0.041,-0.0411,-0.0392,-0.0387,-0.038,-0.0378,-0.0349,-0.0343,-0.0322,-0.0308,-0.0304,-0.0306,-0.0288,-0.0266,-0.0267,-0.0267,-0.0306,-0.0309,-0.0312,0,0,0,0,0,-0.0425,-0.044,-0.0432,-0.0431,-0.042,-0.0412,-0.0409,-0.0391,-0.0381,-0.0383,-0.0364,-0.0344,-0.0309,-0.0307,-0.0302,-0.0304,-0.0266,-0.0266,-0.0267,-0.0304,-0.0308,-0.0312,0,0,0,0,0,0,-0.0456,-0.0437,-0.0429,-0.044,-0.0427,-0.0406,-0.0409,-0.0395,-0.0382,-0.0379,-0.035,-0.0343,-0.0333,-0.0316,-0.0314,-0.0299,-0.0284,-0.0283,-0.0313,-0.0317,-0.032,-0.0318,-0.0286,0,0,0,0,0,-0.0465,-0.0467,-0.0447,-0.0457,-0.0452,-0.0431,-0.0427,-0.0413,-0.0397,-0.0391,-0.037,-0.0349,-0.0334,-0.0323,-0.0307,-0.0301,-0.0262,-0.0299,-0.0302,-0.0305,-0.03,-0.0258,-0.0256,-0.027,-0.027,-0.027,0,0,-0.0479,-0.0471,-0.0472,-0.0463,-0.0453,-0.0448,-0.0427,-0.0423,-0.0418,-0.0387,-0.0378,-0.0361,-0.0335,-0.0327,-0.0321,-0.0312,-0.0278,-0.0306,-0.0309,-0.0301,-0.0258,-0.0257,-0.0255,-0.0271,-0.0271,-0.0271,0,0,-0.0506,-0.0502,-0.0508,-0.0498,-0.0483,-0.0468,-0.0467,-0.0447,-0.0436,-0.0428,-0.0403,-0.0389,-0.0368,-0.0347,-0.0335,-0.0347,-0.0299,-0.0344,-0.0356,-0.0316,-0.0314,-0.0312,-0.0248,-0.024,-0.0344,-0.0344,-0.0344,0,-0.0528,-0.053,-0.0511,-0.0511,-0.0505,-0.0478,-0.048,-0.0467,-0.0445,-0.0435,-0.043,-0.0391,-0.0376,-0.0353,-0.0361,-0.0354,-0.0314,-0.0344,-0.0319,-0.0317,-0.0314,-0.0249,-0.0239,-0.0346,-0.0346,-0.0345,-0.0345,0,-0.0553,-0.0552,-0.0557,-0.0545,-0.0537,-0.0537,-0.0511,-0.0501,-0.0486,-0.0467,-0.0446,-0.0423,-0.0395,-0.0393,-0.0383,-0.0358,-0.0329,-0.033,-0.0309,-0.0315,-0.0246,-0.0235,-0.0349,-0.0348,-0.0347,-0.0347,0,0,-0.0606,-0.058,-0.0581,-0.0577,-0.0553,-0.0551,-0.0538,-0.0518,-0.0508,-0.0484,-0.0467,-0.0447,-0.0426,-0.041,-0.039,-0.0361,-0.0312,-0.0342,-0.0339,-0.0276,-0.0199,-0.0153,-0.0136,-0.0309,-0.0308,-0.0307,-0.0154,0,-0.0633,-0.0639,-0.0616,-0.062,-0.0618,-0.0585,-0.0578,-0.0553,-0.0529,-0.0505,-0.0467,-0.0446,-0.0433,-0.0422,-0.039,-0.0329,-0.0288,-0.0352,-0.0204,-0.0199,-0.0156,-0.0125,-0.0115,0.0024,-0.0143,-0.0141,-0.014,0,-0.0661,-0.0661,-0.0667,-0.0649,-0.0647,-0.0644,-0.0621,-0.0611,-0.0563,-0.0543,-0.0502,-0.0465,-0.0408,-0.041,-0.0287,-0.0326,-0.0267,-0.0221,-0.0214,-0.0149,-0.0133,0.0001,0.005,0.0141,-0.0123,-0.0125,-0.0126,0,-0.0701,-0.0695,-0.0702,-0.0696,-0.0674,-0.067,-0.0661,-0.0623,-0.0618,-0.056,-0.0541,-0.0462,-0.0423,-0.0336,-0.0229,-0.0255,-0.0088,-0.0111,-0.0007,-0.0002,0.0048,0.0055,0.0204,-0.0031,-0.0032,-0.0032,-0.0033,0,-0.0729,-0.0731,-0.0721,-0.0725,-0.0742,-0.0709,-0.0717,-0.0692,-0.0657,-0.0648,-0.0565,-0.0525,-0.0407,-0.0297,-0.0209,-0.0051,-0.006,0.0011,0.0042,0.0035,0.0039,0.0153,0.018,-0.0026,-0.0028,-0.0029,-0.003,0,-0.0747,-0.0741,-0.0757,-0.0755,-0.0758,-0.0771,-0.077,-0.0778,-0.0723,-0.0704,-0.0684,-0.056,-0.0398,-0.0256,-0.0094,-0.002,0.0181,0.0166,0.0166,0.0194,0.0357,0.038,0.0564,0.0607,0.0311,0.0313,0.0315,0,-0.0749,-0.0757,-0.0793,-0.0828,-0.0827,-0.0843,-0.0862,-0.0823,-0.0824,-0.0722,-0.0714,-0.0546,-0.0421,-0.0129,0.0046,0.0255,0.029,0.0363,0.03,0.0392,0.0441,0.0442,0.0464,0.0362,0.0364,0.0366,0.0367,0,-0.0755,-0.0775,-0.08,-0.0887,-0.0924,-0.0954,-0.0965,-0.0971,-0.0914,-0.0852,-0.0735,-0.0615,-0.0319,-0.0059,0.0213,0.0317,0.0427,0.0402,0.0494,0.0502,0.0516,0.0563,0.025,0.0382,0.038,0.0379,0.0378,0.0378,-0.0775,-0.0805,-0.087,-0.0946,-0.1006,-0.1055,-0.1066,-0.105,-0.1014,-0.0897,-0.0771,-0.0551,-0.0179,0.0222,0.0355,0.0616,0.0562,0.0655,0.0683,0.0681,0.0701,0.0435,0.0592,0.0591,0.0591,0.0591,0.0591,0,-0.0812,-0.0846,-0.0928,-0.1026,-0.1111,-0.1115,-0.1132,-0.1109,-0.1048,-0.0896,-0.074,-0.0309,0.0053,0.0381,0.077,0.0887,0.0878,0.0935,0.093,0.0942,0.0717,0.0695,0.0884,0.0884,0.0884,0.0883,0.0883,0.0883,-0.0836,-0.0909,-0.0951,-0.1096,-0.1162,-0.1216,-0.1214,-0.1148,-0.1034,-0.0762,-0.0501,-0.0289,0.0202,0.0813,0.1137,0.1145,0.1219,0.1205,0.1255,0.1087,0.1062,0.1038,0.1025,0.128,0.1281,0.1448,0.145,0.1452]}],[{"header":{"parameterUnit":"m.s-1","parameterCategory":2,"la1":30.2991,"la2":30.254,"lo1":-89.0895,"lo2":-89.0444,"dy":0.0017,"dx":0.0017,"nx":28,"ny":28,"refTime":"2023-09-29T09:00:00:Z","depth":"2","parameterNumber":2,"parameterNumberName":"U-component_of_CURRENTS"},"data":[0,0,0,0,0,0,0,0,0,0,0,0,0,0,0,0,0,0,0,0,0,0,0,0,0,0,0,0,0,0,0,0,0,0,0,0,0,0,0,0,0,0,0,0,0,0,0,0,0,0,0,0,0,0,0,0,0,0,-0.1337,-0.1337,0,-0.1308,-0.1307,-0.1307,-0.132,-0.1321,-0.1323,-0.1324,-0.128,-0.1277,-0.1275,0,0,0,0,0,0,0,0,0,0,0,0,0,-0.1301,-0.1302,-0.1337,-0.1337,-0.1337,-0.1308,-0.1307,-0.1307,-0.132,-0.1321,-0.1323,-0.1324,-0.128,-0.1278,-0.1275,0,0,0,0,0,0,0,0,0,0,0,0,0,-0.1295,-0.1302,-0.1337,-0.1344,-0.1344,-0.1308,-0.1307,-0.1306,-0.132,-0.1321,-0.1323,-0.1325,-0.1281,-0.1278,-0.1275,-0.1219,0,0,-0.1264,-0.1263,0,0,0,0,0,0,0,0,-0.1295,-0.1296,-0.1343,-0.1343,-0.1344,-0.1324,-0.1279,-0.1278,-0.1319,-0.1324,-0.1324,-0.1326,-0.1294,-0.129,-0.1275,-0.1217,-0.1215,-0.1264,-0.1262,-0.126,-0.126,0,0,0,0,0,0,0,-0.1296,-0.1296,-0.1321,-0.1343,-0.1343,-0.1313,-0.1315,-0.1278,-0.1296,-0.1324,-0.1326,-0.1329,-0.1294,-0.1278,-0.1274,-0.1215,-0.1264,-0.1261,-0.1259,-0.1258,-0.1191,-0.1191,0,0,0,0,0,0,-0.1312,-0.1297,-0.1322,-0.132,-0.1328,-0.1313,-0.1315,-0.1325,-0.1297,-0.1296,-0.1328,-0.133,-0.1283,-0.1278,-0.1272,-0.129,-0.126,-0.1257,-0.1255,-0.1191,-0.1191,-0.1192,0,0,0,0,0,0,-0.1312,-0.1315,-0.1323,-0.1311,-0.1311,-0.1314,-0.1323,-0.1323,-0.1338,-0.1301,-0.1299,-0.1348,-0.1284,-0.1277,-0.1276,-0.1285,-0.1256,-0.1253,-0.1191,-0.1191,-0.1191,-0.127,0,0,0,0,0,0,-0.1311,-0.1315,-0.1325,-0.1313,-0.1313,-0.132,-0.1322,-0.1322,-0.1338,-0.1341,-0.1316,-0.1313,-0.1285,-0.1281,-0.1272,-0.128,-0.125,-0.119,-0.1191,-0.1191,-0.1268,-0.1274,-0.1279,0,0,0,0,0,-0.131,-0.133,-0.1326,-0.1329,-0.1328,-0.1321,-0.1317,-0.1321,-0.1338,-0.1341,-0.1339,-0.1315,-0.1277,-0.1279,-0.1268,-0.1275,-0.119,-0.1191,-0.1191,-0.1265,-0.1272,-0.1278,0,0,0,0,0,0,-0.1316,-0.1333,-0.1329,-0.1352,-0.1342,-0.1326,-0.1343,-0.1336,-0.1333,-0.1344,-0.1319,-0.1314,-0.1309,-0.1282,-0.1284,-0.1256,-0.1228,-0.1227,-0.1288,-0.1294,-0.13,-0.1328,-0.1247,0,0,0,0,0,-0.1321,-0.135,-0.134,-0.1359,-0.1367,-0.1356,-0.1356,-0.1347,-0.1344,-0.1346,-0.1333,-0.1316,-0.1294,-0.1292,-0.1258,-0.1248,-0.126,-0.1244,-0.125,-0.1255,-0.127,-0.1302,-0.1313,-0.1193,-0.1193,-0.1193,0,0,-0.1324,-0.1344,-0.1354,-0.1363,-0.1368,-0.1362,-0.1362,-0.1369,-0.1364,-0.1338,-0.135,-0.1329,-0.1294,-0.1283,-0.1278,-0.127,-0.1298,-0.1256,-0.1261,-0.1273,-0.1304,-0.1316,-0.1326,-0.1194,-0.1194,-0.1194,0,0,-0.1331,-0.1372,-0.1381,-0.1388,-0.1394,-0.1386,-0.1396,-0.1385,-0.1393,-0.1385,-0.137,-0.1375,-0.1334,-0.1324,-0.131,-0.1326,-0.1319,-0.1304,-0.1364,-0.1395,-0.1406,-0.1416,-0.1466,-0.1479,-0.1316,-0.1316,-0.1316,0,-0.1335,-0.1348,-0.1378,-0.1387,-0.1396,-0.1405,-0.1394,-0.1401,-0.1386,-0.1406,-0.1401,-0.1385,-0.1356,-0.1363,-0.137,-0.1341,-0.1364,-0.1345,-0.1406,-0.1416,-0.1424,-0.1473,-0.1487,-0.132,-0.132,-0.1319,-0.1319,0,-0.1323,-0.1349,-0.1372,-0.1389,-0.139,-0.1404,-0.1406,-0.1427,-0.1444,-0.1445,-0.1468,-0.1442,-0.1445,-0.1426,-0.1404,-0.1442,-0.1442,-0.1406,-0.1398,-0.1442,-0.1489,-0.1503,-0.1326,-0.1324,-0.1323,-0.1322,0,0,-0.1317,-0.1352,-0.1368,-0.1384,-0.1399,-0.1408,-0.1428,-0.145,-0.1515,-0.1496,-0.156,-0.1522,-0.1539,-0.1525,-0.15,-0.1525,-0.1607,-0.1502,-0.1502,-0.1569,-0.1702,-0.1587,-0.159,-0.1587,-0.1589,-0.1591,-0.1719,0,-0.1306,-0.1318,-0.1335,-0.1364,-0.1372,-0.1412,-0.1451,-0.1476,-0.1519,-0.1593,-0.1588,-0.1621,-0.1567,-0.1585,-0.1605,-0.1604,-0.1642,-0.1577,-0.1634,-0.1637,-0.1542,-0.16,-0.1458,-0.1549,-0.1732,-0.1734,-0.1736,0,-0.1293,-0.1305,-0.1305,-0.1383,-0.14,-0.1419,-0.152,-0.1553,-0.1651,-0.1689,-0.1728,-0.1734,-0.1766,-0.1714,-0.1763,-0.1727,-0.1728,-0.1724,-0.1728,-0.1602,-0.1545,-0.1528,-0.1566,-0.1758,-0.1756,-0.1754,-0.1753,0,-0.1258,-0.1314,-0.132,-0.1338,-0.1398,-0.1437,-0.149,-0.1583,-0.1654,-0.1753,-0.1812,-0.1853,-0.1877,-0.1887,-0.1847,-0.1832,-0.1898,-0.1876,-0.1779,-0.1773,-0.1651,-0.1628,-0.1922,-0.1922,-0.1922,-0.1921,-0.1921,0,-0.1255,-0.1279,-0.1326,-0.1322,-0.1409,-0.1446,-0.1568,-0.1632,-0.1745,-0.1821,-0.1864,-0.19,-0.192,-0.1936,-0.1911,-0.1875,-0.1948,-0.1811,-0.1797,-0.1672,-0.1651,-0.1816,-0.1802,-0.1926,-0.1925,-0.1924,-0.1923,0,-0.1229,-0.125,-0.1269,-0.1331,-0.1381,-0.1442,-0.1603,-0.1701,-0.1794,-0.1886,-0.1906,-0.1971,-0.1967,-0.1965,-0.1982,-0.1943,-0.1923,-0.1881,-0.1735,-0.1699,-0.1784,-0.1772,-0.1855,-0.1852,-0.185,-0.1848,-0.1846,0,-0.1216,-0.12,-0.1266,-0.1324,-0.1364,-0.1487,-0.1586,-0.1703,-0.1779,-0.1888,-0.1908,-0.1945,-0.1909,-0.1914,-0.1858,-0.1827,-0.1843,-0.1678,-0.1606,-0.1798,-0.1778,-0.177,-0.1762,-0.1506,-0.1502,-0.1498,-0.1495,0,-0.1158,-0.1172,-0.1207,-0.1296,-0.1392,-0.1509,-0.1626,-0.1675,-0.1782,-0.1825,-0.1813,-0.1789,-0.18,-0.1681,-0.165,-0.1603,-0.1675,-0.1601,-0.1862,-0.151,-0.1469,-0.1448,-0.1453,-0.1463,-0.1466,-0.1469,-0.1471,-0.1472,-0.1114,-0.1152,-0.1177,-0.1279,-0.1399,-0.1451,-0.1477,-0.1561,-0.1586,-0.1577,-0.1636,-0.1564,-0.1576,-0.1441,-0.1378,-0.1356,-0.1467,-0.1407,-0.142,-0.1436,-0.1337,-0.1289,-0.1235,-0.1237,-0.1239,-0.124,-0.1241,0,-0.1039,-0.1096,-0.1164,-0.1234,-0.1317,-0.1389,-0.1457,-0.1427,-0.1356,-0.1388,-0.1345,-0.1203,-0.1141,-0.1163,-0.109,-0.1085,-0.1097,-0.103,-0.1041,-0.1073,-0.1101,-0.0986,-0.0792,-0.0791,-0.0789,-0.0788,0,0,-0.1001,-0.102,-0.1046,-0.1104,-0.1181,-0.1171,-0.1157,-0.1099,-0.1088,-0.0992,-0.097,-0.1064,-0.1112,-0.0941,-0.0909,-0.0837,-0.0946,-0.0798,-0.1156,-0.1199,-0.1225,-0.1311,-0.1168,0,0,0,0,0]},{"header":{"parameterUnit":"m.s-1","parameterCategory":2,"la1":30.2991,"la2":30.254,"lo1":-89.0895,"lo2":-89.0444,"dy":0.0017,"dx":0.0017,"nx":28,"ny":28,"refTime":"2023-09-29T09:00:00:Z","depth":"2","parameterNumber":3,"parameterNumberName":"V-component_of_CURRENTS"},"data":[0,0,0,0,0,0,0,0,0,0,0,0,0,0,0,0,0,0,0,0,0,0,0,0,0,0,0,0,0,0,0,0,0,0,0,0,0,0,0,0,0,0,0,0,0,0,0,0,0,0,0,0,0,0,0,0,0,0,-0.0184,-0.0183,0,-0.0129,-0.0128,-0.0127,-0.0107,-0.0107,-0.0108,-0.0108,-0.0102,-0.0101,-0.0101,0,0,0,0,0,0,0,0,0,0,0,0,0,-0.0213,-0.0213,-0.0184,-0.0183,-0.0183,-0.0129,-0.0128,-0.0127,-0.0107,-0.0107,-0.0108,-0.0108,-0.0102,-0.0101,-0.0101,0,0,0,0,0,0,0,0,0,0,0,0,0,-0.0183,-0.0213,-0.0184,-0.0167,-0.0165,-0.0129,-0.0128,-0.0127,-0.0107,-0.0107,-0.0108,-0.0108,-0.0102,-0.0101,-0.0101,-0.009,0,0,-0.0099,-0.0099,0,0,0,0,0,0,0,0,-0.0185,-0.0182,-0.017,-0.0168,-0.0166,-0.0126,-0.0136,-0.0117,-0.0107,-0.0128,-0.0108,-0.0108,-0.0115,-0.0113,-0.01,-0.0089,-0.0089,-0.0099,-0.0099,-0.0098,-0.0098,0,0,0,0,0,0,0,-0.0187,-0.0184,-0.0161,-0.0169,-0.0167,-0.0142,-0.0138,-0.0132,-0.012,-0.0126,-0.0125,-0.012,-0.0114,-0.0101,-0.01,-0.0089,-0.0099,-0.0098,-0.0098,-0.0098,-0.0086,-0.0086,0,0,0,0,0,0,-0.0198,-0.0186,-0.0163,-0.016,-0.0177,-0.0141,-0.0137,-0.0138,-0.0119,-0.0117,-0.012,-0.0119,-0.0101,-0.0101,-0.01,-0.0108,-0.0098,-0.0098,-0.0097,-0.0086,-0.0086,-0.0086,0,0,0,0,0,0,-0.0199,-0.0197,-0.0165,-0.0172,-0.0166,-0.0141,-0.0141,-0.0136,-0.0136,-0.0114,-0.0112,-0.0126,-0.0102,-0.0101,-0.0106,-0.0107,-0.0098,-0.0097,-0.0086,-0.0086,-0.0086,-0.011,0,0,0,0,0,0,-0.02,-0.0198,-0.0207,-0.0173,-0.0167,-0.0151,-0.0141,-0.0135,-0.0132,-0.0131,-0.0119,-0.0117,-0.0102,-0.0107,-0.0105,-0.0106,-0.0097,-0.0086,-0.0086,-0.0086,-0.011,-0.0111,-0.0113,0,0,0,0,0,-0.0202,-0.0216,-0.0208,-0.0205,-0.0179,-0.0151,-0.0146,-0.0128,-0.0132,-0.013,-0.0127,-0.0118,-0.0106,-0.0106,-0.0104,-0.0105,-0.0086,-0.0086,-0.0086,-0.0109,-0.0111,-0.0113,0,0,0,0,0,0,-0.0235,-0.0214,-0.0205,-0.0213,-0.0186,-0.0149,-0.0154,-0.0138,-0.0131,-0.0139,-0.0123,-0.0121,-0.012,-0.0113,-0.0114,-0.0101,-0.0093,-0.0093,-0.0111,-0.0113,-0.0114,-0.0123,-0.0096,0,0,0,0,0,-0.0246,-0.0256,-0.0219,-0.0228,-0.022,-0.019,-0.0181,-0.0161,-0.0147,-0.0145,-0.0134,-0.0126,-0.0115,-0.0117,-0.0101,-0.0105,-0.0075,-0.0102,-0.0104,-0.0105,-0.0111,-0.0073,-0.0072,-0.0087,-0.0087,-0.0087,0,0,-0.0261,-0.0254,-0.0258,-0.0237,-0.0222,-0.0204,-0.0186,-0.0175,-0.0161,-0.0147,-0.0144,-0.013,-0.0115,-0.0108,-0.0108,-0.0108,-0.0081,-0.0105,-0.0107,-0.0112,-0.0073,-0.0072,-0.007,-0.0087,-0.0087,-0.0087,0,0,-0.0285,-0.0292,-0.0296,-0.0278,-0.0254,-0.023,-0.0231,-0.0195,-0.0185,-0.0176,-0.0157,-0.0149,-0.0141,-0.012,-0.0113,-0.0118,-0.0086,-0.0115,-0.0139,-0.0102,-0.01,-0.0099,-0.004,-0.0033,-0.0123,-0.0123,-0.0123,0,-0.0311,-0.0304,-0.0292,-0.0285,-0.0273,-0.0247,-0.0232,-0.0218,-0.0185,-0.0178,-0.0183,-0.0152,-0.0143,-0.0124,-0.013,-0.0121,-0.0091,-0.0133,-0.0104,-0.0102,-0.01,-0.004,-0.0031,-0.0124,-0.0124,-0.0124,-0.0124,0,-0.0317,-0.0317,-0.0325,-0.0308,-0.0288,-0.0281,-0.0246,-0.0237,-0.023,-0.0207,-0.0191,-0.0172,-0.0157,-0.0148,-0.0149,-0.0127,-0.0105,-0.0104,-0.0099,-0.0099,-0.0036,-0.0027,-0.0126,-0.0125,-0.0125,-0.0125,0,0,-0.0374,-0.0336,-0.0343,-0.0333,-0.03,-0.0288,-0.0271,-0.0242,-0.0252,-0.0217,-0.0208,-0.019,-0.0182,-0.0174,-0.0158,-0.0135,-0.0092,-0.0127,-0.0125,-0.0069,0.0005,0.0024,0.0036,-0.009,-0.0089,-0.0089,0.0051,0,-0.0388,-0.0373,-0.0348,-0.0342,-0.0327,-0.0301,-0.0302,-0.0273,-0.0257,-0.0247,-0.0208,-0.02,-0.019,-0.0193,-0.0166,-0.0105,-0.0074,-0.0129,-0.0003,0.0002,0.0017,0.0045,0.0019,0.0141,0.006,0.0062,0.0063,0,-0.0402,-0.0387,-0.037,-0.0359,-0.0358,-0.0356,-0.035,-0.0343,-0.0314,-0.0307,-0.0274,-0.0241,-0.0187,-0.0194,-0.0081,-0.0118,-0.0069,-0.0022,-0.0015,0.0012,0.0035,0.0124,0.016,0.0078,0.0077,0.0076,0.0075,0,-0.0427,-0.0415,-0.0404,-0.0396,-0.0374,-0.0379,-0.038,-0.0363,-0.0373,-0.0336,-0.0329,-0.0259,-0.0225,-0.0144,-0.0043,-0.0065,0.0087,0.0077,0.015,0.0153,0.0162,0.0163,0.0143,0.0143,0.0142,0.0142,0.0142,0,-0.0448,-0.0445,-0.0427,-0.0417,-0.0453,-0.0418,-0.0464,-0.0452,-0.0442,-0.045,-0.037,-0.0341,-0.0219,-0.0112,-0.0029,0.0105,0.0108,0.0157,0.0188,0.0155,0.0154,0.0113,0.0108,0.0147,0.0146,0.0145,0.0144,0,-0.0467,-0.045,-0.0447,-0.044,-0.0458,-0.0482,-0.0527,-0.0564,-0.0532,-0.0525,-0.0507,-0.0389,-0.0244,-0.0099,0.0053,0.0123,0.0248,0.0285,0.0251,0.0274,0.029,0.0281,0.0392,0.0394,0.0395,0.0396,0.0397,0,-0.0467,-0.0457,-0.0478,-0.0525,-0.0531,-0.058,-0.0636,-0.0621,-0.0639,-0.0552,-0.0538,-0.0386,-0.0279,-0.0015,0.0141,0.0329,0.0304,0.0393,0.0335,0.0295,0.0314,0.0303,0.0294,0.0355,0.0355,0.0356,0.0356,0,-0.0459,-0.0473,-0.0491,-0.0584,-0.0646,-0.0712,-0.0757,-0.0772,-0.0738,-0.0688,-0.0575,-0.0464,-0.0209,0.0004,0.0237,0.0328,0.0365,0.0407,0.0393,0.0281,0.0267,0.0283,0.0273,0.0361,0.036,0.036,0.036,0.0359,-0.0476,-0.0509,-0.0559,-0.0657,-0.0746,-0.0815,-0.0849,-0.0853,-0.0832,-0.072,-0.0608,-0.0419,-0.0212,0.0125,0.0289,0.043,0.0417,0.044,0.0436,0.0432,0.0387,0.0375,0.0483,0.0483,0.0484,0.0484,0.0484,0,-0.0498,-0.0553,-0.0638,-0.0741,-0.0855,-0.0875,-0.0924,-0.0918,-0.0862,-0.0731,-0.0594,-0.0347,-0.0097,0.0113,0.0342,0.0475,0.0449,0.0487,0.0429,0.0424,0.042,0.0372,0.0466,0.0466,0.0467,0.0467,0,0,-0.0516,-0.059,-0.0633,-0.0811,-0.0902,-0.0982,-0.0995,-0.0942,-0.0851,-0.0704,-0.0554,-0.035,-0.0089,0.0072,0.0248,0.0364,0.0349,0.0365,0.0365,0.0271,0.0265,0.0381,0.0301,0,0,0,0,0]}],[{"header":{"parameterUnit":"m.s-1","parameterCategory":2,"la1":30.2991,"la2":30.254,"lo1":-89.0895,"lo2":-89.0444,"dy":0.0017,"dx":0.0017,"nx":28,"ny":28,"refTime":"2023-09-29T09:00:00:Z","depth":"4","parameterNumber":2,"parameterNumberName":"U-component_of_CURRENTS"},"data":[0,0,0,0,0,0,0,0,0,0,0,0,0,0,0,0,0,0,0,0,0,0,0,0,0,0,0,0,0,0,0,0,0,0,0,0,0,0,0,0,0,0,0,0,0,0,0,0,0,0,0,0,0,0,0,0,0,0,-0.0228,-0.0228,0,-0.028,-0.0281,-0.0282,-0.0312,-0.0312,-0.0312,-0.0312,-0.0363,-0.0365,-0.0366,0,0,0,0,0,0,0,0,0,0,0,0,0,-0.0202,-0.0202,-0.0227,-0.0228,-0.0229,-0.028,-0.0281,-0.0282,-0.0312,-0.0312,-0.0312,-0.0312,-0.0363,-0.0364,-0.0366,0,0,0,0,0,0,0,0,0,0,0,0,0,-0.023,-0.0202,-0.0227,-0.025,-0.0253,-0.028,-0.0281,-0.0282,-0.0312,-0.0312,-0.0312,-0.0312,-0.0362,-0.0364,-0.0366,-0.0374,0,0,-0.0372,-0.0373,0,0,0,0,0,0,0,0,-0.0228,-0.0231,-0.0246,-0.0249,-0.0252,-0.029,-0.0291,-0.0313,-0.0312,-0.0289,-0.0312,-0.0313,-0.0339,-0.0342,-0.0352,-0.0377,-0.0379,-0.0372,-0.0373,-0.0374,-0.0375,0,0,0,0,0,0,0,-0.0226,-0.0229,-0.0248,-0.0247,-0.025,-0.0275,-0.0278,-0.0295,-0.0312,-0.0291,-0.0294,-0.03,-0.034,-0.035,-0.0353,-0.0379,-0.0372,-0.0374,-0.0375,-0.0376,-0.0388,-0.0387,0,0,0,0,0,0,-0.0217,-0.0227,-0.0247,-0.025,-0.024,-0.0275,-0.0279,-0.0277,-0.0312,-0.0318,-0.0299,-0.0301,-0.0347,-0.0351,-0.0355,-0.0358,-0.0374,-0.0376,-0.0377,-0.0389,-0.0388,-0.0387,0,0,0,0,0,0,-0.0216,-0.0218,-0.0245,-0.024,-0.0245,-0.0275,-0.0273,-0.0278,-0.0292,-0.0318,-0.0324,-0.0308,-0.0347,-0.0353,-0.0363,-0.036,-0.0377,-0.0378,-0.039,-0.0388,-0.0387,-0.0368,0,0,0,0,0,0,-0.0215,-0.0217,-0.0214,-0.0239,-0.0245,-0.0262,-0.0273,-0.0279,-0.0295,-0.0298,-0.0328,-0.0333,-0.0348,-0.036,-0.0365,-0.0363,-0.038,-0.0391,-0.0389,-0.0388,-0.037,-0.0367,-0.0364,0,0,0,0,0,-0.0214,-0.0211,-0.0213,-0.0216,-0.0239,-0.0262,-0.0268,-0.029,-0.0296,-0.0303,-0.0314,-0.0332,-0.0354,-0.0361,-0.0367,-0.0366,-0.0391,-0.0389,-0.0388,-0.0371,-0.0367,-0.0364,0,0,0,0,0,0,-0.0199,-0.0215,-0.0217,-0.0219,-0.0238,-0.0268,-0.0277,-0.029,-0.0306,-0.0306,-0.0328,-0.0333,-0.0339,-0.0351,-0.0359,-0.0361,-0.0373,-0.0373,-0.0359,-0.0355,-0.0352,-0.0378,-0.0381,0,0,0,0,0,-0.0192,-0.0188,-0.0214,-0.0211,-0.0225,-0.025,-0.0262,-0.0275,-0.0293,-0.0301,-0.032,-0.0331,-0.0336,-0.0345,-0.0354,-0.0362,-0.0402,-0.0361,-0.0358,-0.0355,-0.0378,-0.0437,-0.0443,-0.0381,-0.0381,-0.0381,0,0,-0.0181,-0.019,-0.0186,-0.0206,-0.0224,-0.0245,-0.0258,-0.0276,-0.0286,-0.0303,-0.032,-0.0324,-0.0334,-0.0338,-0.0341,-0.035,-0.0388,-0.0353,-0.0351,-0.0375,-0.0436,-0.0443,-0.0449,-0.038,-0.038,-0.038,0,0,-0.0168,-0.0171,-0.0174,-0.0194,-0.022,-0.0236,-0.0241,-0.0273,-0.0283,-0.0296,-0.0302,-0.0304,-0.0323,-0.0326,-0.033,-0.0315,-0.0367,-0.0313,-0.0326,-0.0383,-0.0389,-0.0396,-0.0435,-0.0445,-0.0315,-0.0314,-0.0314,0,-0.0158,-0.0165,-0.0178,-0.0197,-0.0215,-0.0233,-0.0253,-0.0264,-0.0289,-0.0301,-0.0298,-0.0325,-0.0318,-0.0334,-0.0317,-0.0311,-0.0356,-0.034,-0.0382,-0.039,-0.0397,-0.0436,-0.0448,-0.0313,-0.0314,-0.0314,-0.0314,0,-0.0154,-0.0169,-0.0176,-0.02,-0.0218,-0.0236,-0.026,-0.0273,-0.0283,-0.0298,-0.0319,-0.0317,-0.0352,-0.0322,-0.0313,-0.035,-0.0368,-0.0371,-0.0399,-0.0403,-0.0442,-0.0455,-0.0312,-0.0312,-0.0313,-0.0313,0,0,-0.0113,-0.0164,-0.0168,-0.019,-0.0226,-0.0241,-0.0258,-0.0287,-0.0316,-0.0322,-0.0373,-0.034,-0.037,-0.0375,-0.037,-0.0387,-0.0441,-0.0402,-0.0405,-0.0454,-0.0574,-0.0562,-0.0574,-0.0468,-0.0471,-0.0472,-0.0576,0,-0.0111,-0.0149,-0.0172,-0.0204,-0.0231,-0.0259,-0.0279,-0.0301,-0.033,-0.0382,-0.0383,-0.0429,-0.0385,-0.0418,-0.043,-0.044,-0.0478,-0.0413,-0.0553,-0.0557,-0.0558,-0.059,-0.048,-0.0585,-0.0588,-0.059,-0.0592,0,-0.01,-0.0132,-0.0166,-0.0225,-0.024,-0.0254,-0.0307,-0.0327,-0.039,-0.0427,-0.0483,-0.0524,-0.0554,-0.0531,-0.058,-0.0551,-0.0578,-0.0573,-0.0578,-0.0592,-0.057,-0.0585,-0.0615,-0.0613,-0.0612,-0.061,-0.0609,0,-0.0064,-0.0127,-0.0152,-0.0171,-0.0234,-0.025,-0.0276,-0.0331,-0.037,-0.0478,-0.056,-0.0606,-0.0656,-0.0693,-0.0708,-0.0665,-0.0776,-0.072,-0.0738,-0.0736,-0.0726,-0.0718,-0.0799,-0.0799,-0.0799,-0.0799,-0.0798,0,-0.0049,-0.0072,-0.0138,-0.0152,-0.0184,-0.0231,-0.0272,-0.0322,-0.0418,-0.0494,-0.0595,-0.0689,-0.0706,-0.0783,-0.0776,-0.081,-0.0852,-0.0763,-0.0775,-0.0709,-0.0698,-0.0734,-0.0725,-0.0803,-0.0802,-0.0801,-0.08,0,0.0009,-0.0042,-0.0074,-0.0144,-0.0163,-0.0176,-0.0258,-0.03,-0.0419,-0.0541,-0.0601,-0.075,-0.0847,-0.089,-0.0938,-0.0897,-0.0928,-0.0946,-0.0895,-0.0898,-0.0823,-0.0812,-0.0944,-0.0944,-0.0945,-0.0946,-0.0946,0,0.003,0.0023,-0.0041,-0.0067,-0.0093,-0.0132,-0.0162,-0.0268,-0.035,-0.0577,-0.0656,-0.0815,-0.0908,-0.0989,-0.0996,-0.1033,-0.1014,-0.1024,-0.0885,-0.0847,-0.0845,-0.0832,-0.082,-0.0947,-0.0947,-0.0947,-0.0947,0,0.0081,0.007,0.0052,0.0006,-0.003,-0.0103,-0.0184,-0.0249,-0.0407,-0.0518,-0.0728,-0.083,-0.0948,-0.0977,-0.1047,-0.1052,-0.0998,-0.1028,-0.1024,-0.0894,-0.0852,-0.0847,-0.0834,-0.0949,-0.0949,-0.0949,-0.0949,0,0.0124,0.0143,0.0121,0.0074,0.0021,-0.0096,-0.014,-0.028,-0.0378,-0.0643,-0.0684,-0.0869,-0.0945,-0.0994,-0.1049,-0.1071,-0.1011,-0.0941,-0.0939,-0.0937,-0.0884,-0.0826,-0.0952,0,0,0,0,0,0.015,0.0173,0.0168,0.0099,0.004,-0.0037,-0.0174,-0.0241,-0.0394,-0.0529,-0.0624,-0.0755,-0.0872,-0.0938,-0.0953,-0.0998,-0.0987,-0.1007,-0.0897,-0.0961,-0.0959,-0.0893,0,0,0,0,0,0,0.0169,0.0187,0.0197,0.0118,0.0052,-0.0047,-0.016,-0.0275,-0.038,-0.0525,-0.0596,-0.069,-0.0804,-0.0856,-0.0931,-0.0947,-0.0859,-0.1085,-0.1083,-0.0962,-0.096,-0.0958,-0.089,0,0,0,0,0]},{"header":{"parameterUnit":"m.s-1","parameterCategory":2,"la1":30.2991,"la2":30.254,"lo1":-89.0895,"lo2":-89.0444,"dy":0.0017,"dx":0.0017,"nx":28,"ny":28,"refTime":"2023-09-29T09:00:00:Z","depth":"4","parameterNumber":3,"parameterNumberName":"V-component_of_CURRENTS"},"data":[0,0,0,0,0,0,0,0,0,0,0,0,0,0,0,0,0,0,0,0,0,0,0,0,0,0,0,0,0,0,0,0,0,0,0,0,0,0,0,0,0,0,0,0,0,0,0,0,0,0,0,0,0,0,0,0,0,0,0.0296,0.0297,0,0.0329,0.033,0.033,0.0334,0.0334,0.0333,0.0333,0.0322,0.0322,0.0322,0,0,0,0,0,0,0,0,0,0,0,0,0,0.0272,0.0272,0.0296,0.0297,0.0297,0.0329,0.033,0.033,0.0334,0.0334,0.0333,0.0333,0.0322,0.0322,0.0322,0,0,0,0,0,0,0,0,0,0,0,0,0,0.0293,0.0272,0.0296,0.0302,0.0302,0.0329,0.033,0.033,0.0335,0.0334,0.0333,0.0332,0.0322,0.0322,0.0322,0.0338,0,0,0.0323,0.0323,0,0,0,0,0,0,0,0,0.0292,0.0294,0.0301,0.0301,0.0302,0.0325,0.0317,0.033,0.0335,0.0324,0.0333,0.0332,0.0318,0.0319,0.033,0.0338,0.0337,0.0323,0.0323,0.0323,0.0323,0,0,0,0,0,0,0,0.029,0.0293,0.0311,0.0301,0.0302,0.0314,0.0316,0.032,0.0326,0.0325,0.0325,0.0326,0.0319,0.033,0.033,0.0337,0.0323,0.0323,0.0323,0.0324,0.036,0.0361,0,0,0,0,0,0,0.0281,0.0291,0.031,0.0312,0.0293,0.0314,0.0317,0.032,0.0327,0.0327,0.0326,0.0326,0.033,0.0329,0.0329,0.0354,0.0323,0.0324,0.0324,0.0359,0.036,0.0361,0,0,0,0,0,0,0.0281,0.0283,0.0309,0.0301,0.0305,0.0315,0.0319,0.0321,0.0333,0.0328,0.0327,0.0336,0.0329,0.0329,0.0343,0.0353,0.0324,0.0324,0.0358,0.036,0.0361,0.0401,0,0,0,0,0,0,0.028,0.0283,0.0283,0.03,0.0305,0.0326,0.032,0.0322,0.0334,0.0334,0.0336,0.0334,0.0329,0.0343,0.0343,0.0353,0.0324,0.0357,0.0359,0.036,0.0398,0.0403,0.0407,0,0,0,0,0,0.0279,0.0284,0.0283,0.0286,0.0305,0.0326,0.033,0.0336,0.0335,0.0344,0.0351,0.0334,0.0352,0.0344,0.0344,0.0355,0.0357,0.0358,0.036,0.0396,0.0402,0.0407,0,0,0,0,0,0,0.0281,0.0285,0.0285,0.0292,0.0307,0.0326,0.0334,0.0341,0.0356,0.0355,0.035,0.0349,0.0365,0.0357,0.0348,0.037,0.035,0.0352,0.0377,0.0383,0.0387,0.0369,0.0324,0,0,0,0,0,0.028,0.0281,0.0293,0.0301,0.0306,0.0322,0.0331,0.0338,0.0352,0.0358,0.0363,0.0366,0.0374,0.0376,0.038,0.0395,0.0378,0.0401,0.0405,0.0409,0.0395,0.0408,0.0413,0.0367,0.0367,0.0367,0,0,0.0284,0.0286,0.0288,0.0301,0.0312,0.0326,0.0327,0.0344,0.0358,0.0354,0.0377,0.0384,0.0382,0.0401,0.0406,0.0394,0.0411,0.0411,0.0415,0.0398,0.0411,0.0415,0.0419,0.0369,0.0368,0.0368,0,0,0.0293,0.0295,0.0297,0.0309,0.0322,0.0333,0.0338,0.0361,0.0372,0.0397,0.0398,0.0412,0.0426,0.0429,0.0431,0.0462,0.0436,0.0464,0.0471,0.0485,0.0488,0.0491,0.0463,0.0463,0.0465,0.0465,0.0465,0,0.0296,0.0299,0.0304,0.0312,0.0317,0.0336,0.0344,0.0366,0.0393,0.0393,0.0405,0.0428,0.0437,0.0447,0.0465,0.0471,0.0461,0.0452,0.049,0.0493,0.0495,0.0466,0.0465,0.0467,0.0467,0.0467,0.0466,0,0.0306,0.0309,0.0314,0.0323,0.0334,0.0348,0.0369,0.0383,0.0398,0.041,0.0429,0.0456,0.0461,0.0477,0.0484,0.0503,0.0483,0.0497,0.0475,0.0502,0.0469,0.0468,0.047,0.0469,0.0469,0.0468,0,0,0.0305,0.0315,0.0316,0.031,0.0337,0.0341,0.0366,0.0376,0.0365,0.0416,0.0409,0.0459,0.0468,0.0472,0.0489,0.0508,0.0527,0.0513,0.0513,0.0481,0.0528,0.0513,0.051,0.0554,0.0555,0.0555,0.0493,0,0.0307,0.0308,0.0319,0.0322,0.0322,0.0337,0.0344,0.0357,0.037,0.0373,0.0412,0.042,0.047,0.0471,0.0507,0.0509,0.0527,0.0539,0.0508,0.0506,0.0488,0.051,0.0556,0.0492,0.0492,0.0492,0.0492,0,0.0307,0.0303,0.0304,0.029,0.0289,0.0296,0.0281,0.0291,0.0302,0.031,0.0341,0.0368,0.0404,0.0449,0.0483,0.0489,0.0516,0.0526,0.0525,0.0493,0.049,0.0463,0.0489,0.0489,0.049,0.049,0.049,0,0.0282,0.0287,0.0278,0.0281,0.0278,0.0271,0.0267,0.0267,0.0248,0.0271,0.0254,0.0313,0.0319,0.0383,0.0436,0.0457,0.0458,0.0486,0.0493,0.049,0.0502,0.0499,0.052,0.052,0.052,0.0521,0.0521,0,0.0269,0.026,0.0262,0.0255,0.0227,0.0235,0.0195,0.0201,0.0183,0.0141,0.0222,0.0207,0.0308,0.0333,0.0401,0.0432,0.0436,0.0484,0.0481,0.0518,0.0518,0.0499,0.0498,0.0518,0.0519,0.0519,0.052,0,0.0245,0.0249,0.0233,0.0222,0.0216,0.0194,0.015,0.0107,0.0106,0.0056,0.0062,0.0108,0.0145,0.0233,0.0298,0.0357,0.0404,0.0421,0.0416,0.0415,0.0428,0.043,0.0405,0.0404,0.0403,0.0403,0.0402,0,0.0234,0.0227,0.0209,0.0187,0.0183,0.0146,0.0102,0.0079,0.0027,-0.0011,-0.0044,-0.0011,0.0034,0.0096,0.0215,0.0322,0.0362,0.0367,0.0446,0.042,0.042,0.0423,0.0425,0.0401,0.0401,0.0401,0.0401,0,0.0218,0.0215,0.0201,0.0158,0.0116,0.0043,-0.0014,-0.0063,-0.0114,-0.0109,-0.0146,-0.0084,-0.005,0.0064,0.0148,0.0241,0.0355,0.0361,0.0364,0.0437,0.0416,0.0417,0.042,0.0398,0.0399,0.0399,0.0399,0,0.0208,0.0197,0.0178,0.0128,0.0063,-0.0046,-0.0077,-0.0147,-0.0197,-0.0229,-0.0242,-0.0166,-0.0115,0.0019,0.0099,0.0186,0.0226,0.0261,0.027,0.0274,0.0283,0.0239,0.0156,0,0,0,0,0,0.0197,0.0181,0.0144,0.0071,-0.0009,-0.0065,-0.0154,-0.0191,-0.0235,-0.0276,-0.0263,-0.0218,-0.0097,-0.0031,0.0052,0.0103,0.0248,0.0203,0.0293,0.0384,0.0387,0.0423,0,0,0,0,0,0,0.019,0.0172,0.0148,0.0023,-0.0052,-0.0165,-0.024,-0.0279,-0.0298,-0.0304,-0.0233,-0.0195,-0.0062,-0.0141,0.0057,0.0085,0.0152,0.0271,0.0273,0.0383,0.0385,0.0388,0.0425,0,0,0,0,0]}]]